Tracking 33208 objects as of 14-Feb-2026
HD Live streaming from Space Station
objects crossing your sky now

ENSHI XIDA SHANQUAN

Track ENSHI XIDA SHANQUAN now!
10-day predictions


NORAD ID: 64962
Int'l Code: 2025-160A
Perigee: 467.0 km
Apogee: 477.6 km
Inclination: 97.4 °
Period: 93.9 minutes
Semi major axis: 6843 km
RCS: Unknown
Launch date: July 29, 2025
Source: People's Republic of China (PRC)
Launch site: Jiuquan Satellite Launch Center, China (JSC)
Your satellite tracking list
Your tracking list is empty




NASA's NSSDC Master Catalog

Two Line Element Set (TLE):
1 64962U 25160A   26045.26556171  .00032664  00000-0  10045-2 0  9994
2 64962  97.3732 122.7571 0007715 283.2367  76.8015 15.33583405 30520
Source of the keplerian elements: AFSPC